| time (UTC) | temp C | wind direction | speed KPH | gust KPH | rain 1hr cm | rain 24hr cm | rain mn cm | humidity % | barometer mb |
| 20260906225847 | 36 | 96 | 8.0 | 20.9 | 0.00 | 0.00 | 0.00 | 39 | 1007.8 |
| 20260906224904 | 36 | 94 | 11.3 | 20.9 | 0.00 | 0.00 | 0.00 | 38 | 1007.7 |
| 20260906223918 | 37 | 97 | 9.7 | 20.9 | 0.00 | 0.00 | 0.00 | 38 | 1007.8 |
| 20260906222843 | 36 | 99 | 9.7 | 19.3 | 0.00 | 0.00 | 0.00 | 38 | 1007.8 |
| 20260906221908 | 36 | 103 | 8.0 | 19.3 | 0.00 | 0.00 | 0.00 | 40 | 1007.9 |
| 20260906220839 | 36 | 84 | 8.0 | 16.1 | 0.00 | 0.00 | 0.00 | 39 | 1008.0 |
| 20260906213610 | 36 | 67 | 9.7 | 25.7 | 0.00 | 0.00 | 0.00 | 39 | 1008.3 |
| 20260906212610 | 36 | 59 | 12.9 | 25.7 | 0.00 | 0.00 | 0.00 | 39 | 1008.4 |
| 20260906211628 | 36 | 44 | 11.3 | 20.9 | 0.00 | 0.00 | 0.00 | 41 | 1008.4 |
| 20260906210629 | 36 | 53 | 9.7 | 22.5 | 0.00 | 0.00 | 0.00 | 40 | 1008.7 |
| 20260906204450 | 37 | 159 | 8.0 | 20.9 | 0.00 | 0.00 | 0.00 | 38 | 1009.0 |
| 20260906203453 | 37 | 71 | 11.3 | 19.3 | 0.00 | 0.00 | 0.00 | 38 | 1009.0 |
| 20260906202444 | 38 | 157 | 8.0 | 20.9 | 0.00 | 0.00 | 0.00 | 36 | 1009.2 |
| 20260906201452 | 38 | 129 | 9.7 | 20.9 | 0.00 | 0.00 | 0.00 | 37 | 1009.2 |
| 20260906200513 | 37 | 96 | 11.3 | 24.1 | 0.00 | 0.00 | 0.00 | 38 | 1009.2 |
| 20260906195520 | 37 | 101 | 14.5 | 24.1 | 0.00 | 0.00 | 0.00 | 39 | 1009.4 |
| 20260906194511 | 37 | 69 | 8.0 | 25.7 | 0.00 | 0.00 | 0.00 | 40 | 1009.4 |
| 20260906193524 | 36 | 83 | 12.9 | 25.7 | 0.00 | 0.00 | 0.00 | 40 | 1009.5 |
| 20260906192530 | 36 | 117 | 12.9 | 25.7 | 0.00 | 0.00 | 0.00 | 40 | 1009.7 |
| 20260906191544 | 36 | 112 | 9.7 | 25.7 | 0.00 | 0.00 | 0.00 | 41 | 1009.8 |
| 20260906190513 | 36 | 81 | 14.5 | 24.1 | 0.00 | 0.00 | 0.00 | 39 | 1009.8 |
| 20260906185447 | 37 | 153 | 12.9 | 25.7 | 0.00 | 0.00 | 0.00 | 40 | 1010.0 |
| 20260906183334 | 36 | 135 | 12.9 | 22.5 | 0.00 | 0.00 | 0.00 | 40 | 1010.1 |
| 20260906182318 | 36 | 118 | 9.7 | 22.5 | 0.00 | 0.00 | 0.00 | 42 | 1010.3 |
| 20260906181314 | 36 | 67 | 11.3 | 22.5 | 0.00 | 0.00 | 0.00 | 44 | 1010.6 |
| 20260906180303 | 36 | 110 | 9.7 | 24.1 | 0.00 | 0.00 | 0.00 | 41 | 1010.6 |
| 20260906175243 | 36 | 137 | 12.9 | 24.1 | 0.00 | 0.00 | 0.00 | 42 | 1010.9 |
| 20260906174241 | 36 | 107 | 12.9 | 22.5 | 0.00 | 0.00 | 0.00 | 44 | 1011.1 |
| 20260906172037 | 35 | 42 | 9.7 | 20.9 | 0.00 | 0.00 | 0.00 | 45 | 1011.2 |
| 20260906171026 | 35 | 26 | 11.3 | 20.9 | 0.00 | 0.00 | 0.00 | 46 | 1011.3 |
| 20260906170026 | 35 | 157 | 8.0 | 16.1 | 0.00 | 0.00 | 0.00 | 48 | 1011.5 |
| 20260906163825 | 34 | 78 | 8.0 | 17.7 | 0.00 | 0.00 | 0.00 | 49 | 1011.5 |
| 20260906162805 | 34 | 54 | 6.4 | 14.5 | 0.00 | 0.00 | 0.00 | 51 | 1011.4 |
| 20260906160727 | 33 | 44 | 6.4 | 16.1 | 0.00 | 0.00 | 0.00 | 52 | 1011.5 |
| 20260906155715 | 33 | 24 | 4.8 | 16.1 | 0.00 | 0.00 | 0.00 | 52 | 1011.6 |
| 20260906154701 | 33 | 39 | 3.2 | 12.9 | 0.00 | 0.00 | 0.00 | 55 | 1011.6 |
| 20260906153719 | 33 | 157 | 1.6 | 6.4 | 0.00 | 0.00 | 0.00 | 57 | 1011.7 |
| 20260906152656 | 33 | 18 | 1.6 | 6.4 | 0.00 | 0.00 | 0.00 | 58 | 1011.6 |
| 20260906151631 | 32 | 147 | 1.6 | 8.0 | 0.00 | 0.00 | 0.00 | 59 | 1011.4 |
| 20260906145504 | 31 | 106 | 3.2 | 8.0 | 0.00 | 0.00 | 0.00 | 62 | 1011.3 |
| 20260906143341 | 30 | 92 | 0.0 | 4.8 | 0.00 | 0.00 | 0.00 | 66 | 1011.3 |
| 20260906142330 | 29 | 138 | 0.0 | 0.0 | 0.00 | 0.00 | 0.00 | 68 | 1011.3 |
| 20260906141351 | 29 | 5 | 1.6 | 4.8 | 0.00 | 0.00 | 0.00 | 70 | 1011.3 |
| 20260906135246 | 28 | 84 | 1.6 | 8.0 | 0.00 | 0.00 | 0.00 | 74 | 1011.5 |
| 20260906134218 | 27 | 88 | 3.2 | 8.0 | 0.00 | 0.00 | 0.00 | 77 | 1011.3 |
| 20260906133223 | 26 | 142 | 3.2 | 9.7 | 0.00 | 0.00 | 0.00 | 79 | 1011.2 |
| 20260906132204 | 25 | 148 | 0.0 | 9.7 | 0.00 | 0.00 | 0.00 | 83 | 1011.3 |
| 20260906131152 | 24 | 140 | 0.0 | 0.0 | 0.00 | 0.00 | 0.00 | 87 | 1011.3 |
| 20260906130135 | 23 | 140 | 0.0 | 0.0 | 0.00 | 0.00 | 0.00 | 89 | 1011.2 |
| 20260906125119 | 23 | 165 | 0.0 | 0.0 | 0.00 | 0.00 | 0.00 | 88 | 1011.0 |
| 20260906124135 | 23 | 165 | 0.0 | 0.0 | 0.00 | 0.00 | 0.00 | 88 | 1011.0 |
| 20260906123156 | 23 | 165 | 0.0 | 0.0 | 0.00 | 0.00 | 0.00 | 88 | 1011.0 |
| 20260906122124 | 22 | 165 | 0.0 | 0.0 | 0.00 | 0.00 | 0.00 | 88 | 1010.9 |
| 20260906121055 | 22 | 165 | 0.0 | 0.0 | 0.00 | 0.00 | 0.00 | 87 | 1010.8 |
| 20260906120115 | 22 | 61 | 0.0 | 0.0 | 0.00 | 0.00 | 0.00 | 87 | 1010.7 |
| 20260906115052 | 22 | 61 | 0.0 | 0.0 | 0.00 | 0.00 | 0.00 | 86 | 1010.6 |
| 20260906114022 | 23 | 57 | 0.0 | 0.0 | 0.00 | 0.00 | 0.00 | 85 | 1010.4 |
| 20260906113024 | 23 | 57 | 0.0 | 0.0 | 0.00 | 0.00 | 0.00 | 85 | 1010.5 |
| 20260906112042 | 23 | 115 | 0.0 | 0.0 | 0.00 | 0.00 | 0.00 | 85 | 1010.2 |
| 20260906111107 | 23 | 115 | 0.0 | 0.0 | 0.00 | 0.00 | 0.00 | 85 | 1010.1 |
| 20260906110132 | 23 | 115 | 0.0 | 0.0 | 0.00 | 0.00 | 0.00 | 85 | 1010.0 |
| 20260906105156 | 23 | 115 | 0.0 | 0.0 | 0.00 | 0.00 | 0.00 | 85 | 1009.9 |
| 20260906104125 | 23 | 115 | 0.0 | 0.0 | 0.00 | 0.00 | 0.00 | 85 | 1009.9 |
| 20260906103150 | 23 | 115 | 0.0 | 0.0 | 0.00 | 0.00 | 0.00 | 84 | 1010.0 |
| 20260906102158 | 23 | 115 | 0.0 | 0.0 | 0.00 | 0.00 | 0.00 | 83 | 1010.0 |
| 20260906101218 | 24 | 115 | 0.0 | 0.0 | 0.00 | 0.00 | 0.00 | 83 | 1009.8 |
| 20260906100241 | 24 | 115 | 0.0 | 0.0 | 0.00 | 0.00 | 0.00 | 82 | 1009.9 |
| 20260906093015 | 25 | 115 | 0.0 | 0.0 | 0.00 | 0.00 | 0.00 | 80 | 1009.6 |
| 20260906092033 | 25 | 115 | 0.0 | 0.0 | 0.00 | 0.00 | 0.00 | 80 | 1009.4 |
| 20260906085908 | 26 | 239 | 0.0 | 0.0 | 0.00 | 0.00 | 0.00 | 78 | 1009.2 |
| 20260906084919 | 26 | 241 | 0.0 | 0.0 | 0.00 | 0.00 | 0.00 | 78 | 1009.1 |
| 20260906083930 | 25 | 166 | 3.2 | 8.0 | 0.00 | 0.00 | 0.00 | 79 | 1009.2 |
| 20260906082911 | 26 | 173 | 4.8 | 9.7 | 0.00 | 0.00 | 0.00 | 78 | 1009.1 |
| 20260906081853 | 26 | 165 | 6.4 | 9.7 | 0.00 | 0.00 | 0.00 | 78 | 1009.1 |
| 20260906080914 | 26 | 172 | 1.6 | 6.4 | 0.00 | 0.00 | 0.00 | 78 | 1009.2 |
| 20260906075937 | 26 | 161 | 1.6 | 4.8 | 0.00 | 0.00 | 0.00 | 78 | 1009.5 |
| 20260906074935 | 26 | 152 | 1.6 | 4.8 | 0.00 | 0.00 | 0.00 | 77 | 1009.6 |
| 20260906073932 | 26 | 162 | 1.6 | 6.4 | 0.00 | 0.00 | 0.00 | 77 | 1009.8 |
| 20260906072925 | 26 | 158 | 3.2 | 8.0 | 0.00 | 0.00 | 0.00 | 77 | 1009.7 |
| 20260906071907 | 26 | 168 | 4.8 | 8.0 | 0.00 | 0.00 | 0.00 | 76 | 1009.5 |
| 20260906070931 | 26 | 156 | 4.8 | 6.4 | 0.00 | 0.00 | 0.00 | 77 | 1009.4 |
| 20260906065912 | 26 | 156 | 3.2 | 6.4 | 0.00 | 0.00 | 0.00 | 77 | 1009.4 |
| 20260906064858 | 26 | 161 | 1.6 | 4.8 | 0.00 | 0.00 | 0.00 | 76 | 1009.7 |
| 20260906061541 | 27 | 161 | 0.0 | 4.8 | 0.00 | 0.00 | 0.00 | 73 | 1009.8 |
| 20260906060539 | 27 | 161 | 0.0 | 0.0 | 0.00 | 0.00 | 0.00 | 72 | 1009.9 |
| 20260906055537 | 27 | 161 | 1.6 | 4.8 | 0.00 | 0.00 | 0.00 | 72 | 1010.0 |
| 20260906054536 | 27 | 161 | 1.6 | 4.8 | 0.00 | 0.00 | 0.00 | 72 | 1010.0 |
| 20260906053505 | 27 | 165 | 3.2 | 4.8 | 0.00 | 0.00 | 0.00 | 71 | 1010.0 |
| 20260906052450 | 28 | 150 | 3.2 | 6.4 | 0.00 | 0.00 | 0.00 | 70 | 1010.1 |
| 20260906051457 | 28 | 182 | 3.2 | 6.4 | 0.00 | 0.00 | 0.00 | 69 | 1010.0 |
| 20260906043156 | 28 | 157 | 3.2 | 8.0 | 0.00 | 0.00 | 0.00 | 66 | 1009.8 |
| 20260906042221 | 29 | 129 | 4.8 | 8.0 | 0.00 | 0.00 | 0.00 | 66 | 1009.8 |
| 20260906041210 | 29 | 154 | 3.2 | 8.0 | 0.00 | 0.00 | 0.00 | 65 | 1009.7 |
| 20260906040149 | 29 | 159 | 4.8 | 11.3 | 0.00 | 0.00 | 0.00 | 64 | 1009.7 |
| 20260906034030 | 30 | 154 | 3.2 | 8.0 | 0.00 | 0.00 | 0.00 | 61 | 1009.7 |
| 20260906031843 | 30 | 159 | 4.8 | 9.7 | 0.00 | 0.00 | 0.00 | 59 | 1009.7 |
| 20260906030814 | 30 | 189 | 4.8 | 8.0 | 0.00 | 0.00 | 0.00 | 58 | 1009.6 |
| 20260906024651 | 31 | 144 | 8.0 | 16.1 | 0.00 | 0.00 | 0.00 | 56 | 1009.4 |
| 20260906023640 | 31 | 144 | 8.0 | 12.9 | 0.00 | 0.00 | 0.00 | 55 | 1009.2 |
| 20260906022642 | 31 | 141 | 11.3 | 19.3 | 0.00 | 0.00 | 0.00 | 54 | 1009.2 |
| 20260906021705 | 30 | 130 | 4.8 | 19.3 | 0.00 | 0.00 | 0.00 | 54 | 1009.1 |
| 20260906020631 | 30 | 176 | 0.0 | 4.8 | 0.00 | 0.00 | 0.00 | 53 | 1008.6 |
| 20260906015645 | 31 | 176 | 0.0 | 4.8 | 0.00 | 0.00 | 0.00 | 51 | 1008.4 |
| 20260906014616 | 32 | 126 | 0.0 | 0.0 | 0.00 | 0.00 | 0.00 | 49 | 1008.3 |
| 20260906013626 | 32 | 126 | 0.0 | 0.0 | 0.00 | 0.00 | 0.00 | 47 | 1008.2 |
| 20260906012557 | 33 | 126 | 0.0 | 0.0 | 0.00 | 0.00 | 0.00 | 45 | 1008.0 |
| 20260906010453 | 33 | 126 | 0.0 | 3.2 | 0.00 | 0.00 | 0.00 | 43 | 1007.8 |
| 20260906005435 | 34 | 126 | 0.0 | 8.0 | 0.00 | 0.00 | 0.00 | 42 | 1007.8 |
| 20260906004400 | 35 | 117 | 1.6 | 12.9 | 0.00 | 0.00 | 0.00 | 41 | 1007.9 |
| 20260906002247 | 35 | 110 | 4.8 | 14.5 | 0.00 | 0.00 | 0.00 | 39 | 1007.8 |
| 20260906001218 | 36 | 114 | 6.4 | 14.5 | 0.00 | 0.00 | 0.00 | 39 | 1007.7 |
| 20260906000222 | 36 | 107 | 6.4 | 12.9 | 0.00 | 0.00 | 0.00 | 38 | 1007.7 |
| 20260905235233 | 36 | 78 | 4.8 | 11.3 | 0.00 | 0.00 | 0.00 | 37 | 1007.6 |
| 20260905234226 | 36 | 131 | 4.8 | 14.5 | 0.00 | 0.00 | 0.00 | 37 | 1007.5 |
| 20260905233222 | 36 | 88 | 6.4 | 14.5 | 0.00 | 0.00 | 0.00 | 36 | 1007.6 |
| 20260905232212 | 36 | 128 | 8.0 | 14.5 | 0.00 | 0.00 | 0.00 | 35 | 1007.5 |
| 20260905231223 | 37 | 117 | 6.4 | 14.5 | 0.00 | 0.00 | 0.00 | 36 | 1007.5 |
| 20260905230206 | 37 | 109 | 8.0 | 14.5 | 0.00 | 0.00 | 0.00 | 35 | 1007.5 |